FDX980 KMSP-KBOS

Flight info

Callsign FDX980
Flight time N/A
Altitude 35000
Route WLSTN7 GRB DAYYY Q140 HANKK Q935 PONCT JFUND2
Aircraft MD11/H-SDE1E2E3FGHIJ2J3J4J5M1RWXY/LB1D1

Departure

Time N/A
Airport Minneapolis–Saint Paul International Airport / Wold–Chamberlain Field (KMSP)

Arrival

Time 2026-04-28 02:33
Airport Boston Logan International Airport (KBOS)
Time Latitude Longitude Altitude Speed Heading
2026-04-28 01:21 44.04029 -81.19614 35446 ft 533 kts 108°
2026-04-28 01:22 44.02034 -81.09691 35446 ft 532 kts 109°
2026-04-28 01:22 44.00019 -80.99781 35458 ft 532 kts 109°
2026-04-28 01:23 43.98031 -80.89937 35452 ft 532 kts 108°
2026-04-28 01:23 43.96028 -80.80004 35468 ft 534 kts 108°
2026-04-28 01:24 43.94020 -80.70090 35484 ft 534 kts 108°
2026-04-28 01:24 43.92002 -80.60184 35489 ft 534 kts 108°
2026-04-28 01:25 43.89973 -80.50274 35486 ft 533 kts 108°
2026-04-28 01:25 43.87951 -80.40446 35498 ft 534 kts 108°
2026-04-28 01:26 43.85907 -80.30559 35505 ft 534 kts 108°
2026-04-28 01:26 43.83851 -80.20667 35506 ft 534 kts 108°
2026-04-28 01:27 43.81786 -80.10776 35506 ft 532 kts 107°
2026-04-28 01:27 43.79710 -80.00949 35509 ft 532 kts 108°
2026-04-28 01:28 43.77607 -79.91203 35502 ft 531 kts 108°
2026-04-28 01:28 43.75492 -79.81353 35507 ft 532 kts 107°
2026-04-28 01:29 43.73402 -79.71589 35507 ft 533 kts 107°
2026-04-28 01:29 43.71292 -79.61762 35473 ft 534 kts 107°
2026-04-28 01:30 43.69166 -79.51907 35473 ft 534 kts 107°
2026-04-28 01:30 43.67034 -79.42081 35491 ft 534 kts 107°
2026-04-28 01:31 43.64722 -79.32338 35483 ft 534 kts 110°
2026-04-28 01:31 43.62060 -79.22770 35486 ft 534 kts 112°
2026-04-28 01:32 43.59345 -79.13234 35505 ft 534 kts 112°
2026-04-28 01:32 43.56656 -79.03687 35513 ft 534 kts 111°
2026-04-28 01:33 43.55329 -78.98955 35234 ft 533 kts 111°
2026-04-28 01:33 43.53990 -78.94193 35136 ft 531 kts 111°
2026-04-28 01:33 43.51298 -78.84708 35106 ft 531 kts 111°
2026-04-28 01:34 43.48600 -78.75233 35105 ft 531 kts 111°
2026-04-28 01:34 43.45901 -78.65752 35102 ft 531 kts 111°
2026-04-28 01:35 43.43198 -78.56254 35107 ft 533 kts 111°
2026-04-28 01:35 43.40506 -78.46825 35106 ft 533 kts 111°
2026-04-28 01:36 43.37789 -78.37347 35110 ft 533 kts 111°
2026-04-28 01:36 43.35064 -78.27878 35109 ft 533 kts 111°
2026-04-28 01:37 43.32331 -78.18420 35117 ft 533 kts 111°
2026-04-28 01:37 43.29183 -78.09221 35125 ft 533 kts 119°
2026-04-28 01:38 43.25501 -78.00402 35125 ft 532 kts 121°
2026-04-28 01:38 43.21761 -77.91628 35130 ft 534 kts 120°
2026-04-28 01:39 43.18078 -77.82836 35130 ft 535 kts 119°
2026-04-28 01:39 43.14396 -77.73984 35136 ft 534 kts 119°
2026-04-28 01:40 43.10713 -77.65151 35138 ft 534 kts 120°
2026-04-28 01:40 43.07008 -77.56301 35144 ft 535 kts 119°
2026-04-28 01:41 43.03297 -77.47467 35167 ft 536 kts 119°
2026-04-28 01:41 42.99575 -77.38634 35172 ft 536 kts 119°
2026-04-28 01:42 42.95866 -77.29861 35174 ft 536 kts 119°
2026-04-28 01:42 42.92129 -77.21049 35189 ft 537 kts 118°
2026-04-28 01:43 42.89070 -77.11794 35167 ft 532 kts 102°
2026-04-28 01:43 42.88117 -77.01910 35172 ft 522 kts 84°
2026-04-28 01:44 42.88427 -76.92031 35176 ft 521 kts 83°
2026-04-28 01:44 42.88492 -76.82123 35167 ft 523 kts 86°
2026-04-28 01:45 42.88234 -76.72278 35170 ft 523 kts 87°
2026-04-28 01:45 42.87879 -76.62369 35176 ft 523 kts 88°
2026-04-28 01:46 42.87525 -76.52469 35170 ft 523 kts 87°
2026-04-28 01:46 42.87171 -76.42571 35176 ft 521 kts 87°
2026-04-28 01:47 42.86801 -76.32695 35169 ft 521 kts 87°
2026-04-28 01:47 42.86434 -76.22835 35169 ft 521 kts 87°
2026-04-28 01:48 42.86066 -76.12983 35198 ft 521 kts 86°
2026-04-28 01:48 42.85692 -76.03219 35180 ft 517 kts 86°
2026-04-28 01:49 42.85305 -75.93431 35195 ft 517 kts 86°
2026-04-28 01:49 42.84895 -75.83631 35213 ft 517 kts 86°
2026-04-28 01:50 42.84484 -75.73846 35227 ft 516 kts 86°
2026-04-28 01:50 42.84072 -75.64101 35235 ft 514 kts 86°
2026-04-28 01:51 42.83655 -75.54359 35225 ft 514 kts 86°
2026-04-28 01:51 42.83233 -75.44683 35229 ft 514 kts 86°
2026-04-28 01:52 42.82798 -75.34966 35228 ft 512 kts 85°
2026-04-28 01:52 42.82357 -75.25286 35218 ft 512 kts 85°
2026-04-28 01:53 42.81910 -75.15605 35217 ft 512 kts 85°
2026-04-28 01:53 42.81453 -75.05922 35236 ft 512 kts 85°
2026-04-28 01:54 42.80986 -74.96239 35215 ft 511 kts 85°
2026-04-28 01:54 42.80514 -74.86579 35214 ft 511 kts 85°
2026-04-28 01:55 42.80007 -74.76906 35215 ft 512 kts 85°
2026-04-28 01:55 42.79490 -74.67297 35213 ft 511 kts 85°
2026-04-28 01:56 42.78984 -74.57636 35214 ft 512 kts 85°
2026-04-28 01:56 42.78479 -74.47969 35212 ft 512 kts 85°
2026-04-28 01:57 42.77966 -74.38302 35213 ft 512 kts 85°
2026-04-28 01:57 42.77444 -74.28640 35217 ft 511 kts 85°
2026-04-28 01:58 42.76914 -74.18976 35209 ft 511 kts 85°
2026-04-28 01:58 42.76379 -74.09373 35208 ft 512 kts 85°
2026-04-28 01:59 42.75832 -73.99715 35241 ft 511 kts 85°
2026-04-28 01:59 42.75278 -73.90090 35252 ft 509 kts 85°
2026-04-28 02:00 42.74766 -73.80491 35249 ft 506 kts 83°
2026-04-28 02:00 42.74592 -73.70956 35248 ft 503 kts 81°
2026-04-28 02:01 42.74561 -73.61457 35255 ft 502 kts 81°
2026-04-28 02:01 42.74518 -73.51973 35232 ft 501 kts 81°
2026-04-28 02:02 42.74449 -73.42495 35257 ft 501 kts 81°
2026-04-28 02:02 42.74364 -73.33066 35277 ft 501 kts 81°
2026-04-28 02:03 42.74270 -73.23588 34899 ft 501 kts 81°
2026-04-28 02:03 42.74222 -73.18852 34368 ft 501 kts 82°
2026-04-28 02:03 42.74164 -73.14108 33679 ft 501 kts 83°
2026-04-28 02:04 42.73918 -73.09356 32998 ft 506 kts 88°
2026-04-28 02:04 42.73459 -73.04589 32398 ft 508 kts 91°
2026-04-28 02:04 42.72898 -72.99841 31790 ft 509 kts 92°
2026-04-28 02:04 42.72304 -72.95100 31205 ft 508 kts 92°
2026-04-28 02:05 42.71711 -72.90365 30588 ft 505 kts 92°
2026-04-28 02:05 42.71145 -72.85743 29910 ft 499 kts 92°
2026-04-28 02:05 42.70589 -72.81113 29234 ft 492 kts 91°
2026-04-28 02:05 42.70050 -72.76547 28593 ft 487 kts 91°
2026-04-28 02:06 42.69517 -72.72002 27995 ft 482 kts 91°
2026-04-28 02:06 42.68993 -72.67517 27396 ft 477 kts 92°
2026-04-28 02:06 42.68470 -72.63092 26800 ft 472 kts 92°
2026-04-28 02:06 42.67947 -72.58758 26248 ft 468 kts 92°
2026-04-28 02:07 42.67418 -72.54426 25628 ft 464 kts 92°
2026-04-28 02:07 42.66890 -72.50115 25037 ft 459 kts 92°
2026-04-28 02:07 42.66368 -72.45847 24624 ft 455 kts 92°
2026-04-28 02:07 42.65850 -72.41606 24375 ft 452 kts 92°
2026-04-28 02:08 42.65340 -72.37487 24209 ft 432 kts 92°
2026-04-28 02:08 42.64847 -72.33537 23848 ft 417 kts 92°
2026-04-28 02:08 42.64381 -72.29680 23212 ft 410 kts 92°
2026-04-28 02:08 42.63936 -72.25876 22544 ft 403 kts 92°
2026-04-28 02:09 42.63505 -72.22138 21928 ft 398 kts 92°
2026-04-28 02:09 42.63224 -72.19699 21517 ft 394 kts 92°
2026-04-28 02:09 42.62803 -72.16046 20908 ft 389 kts 93°
2026-04-28 02:09 42.62385 -72.12427 20317 ft 385 kts 93°
2026-04-28 02:10 42.61970 -72.08858 19737 ft 381 kts 94°
2026-04-28 02:10 42.61557 -72.05327 19157 ft 377 kts 94°
2026-04-28 02:10 42.61134 -72.01834 18590 ft 373 kts 95°
2026-04-28 02:10 42.60707 -71.98379 17963 ft 369 kts 95°
2026-04-28 02:11 42.60281 -71.94952 17388 ft 366 kts 96°
2026-04-28 02:11 42.59864 -71.91603 16842 ft 362 kts 96°
2026-04-28 02:11 42.59446 -71.88247 16298 ft 359 kts 96°
2026-04-28 02:11 42.59031 -71.84919 15758 ft 356 kts 96°
2026-04-28 02:12 42.58591 -71.81623 15291 ft 354 kts 97°
2026-04-28 02:12 42.58103 -71.78357 14719 ft 355 kts 98°
2026-04-28 02:12 42.57591 -71.75074 13995 ft 356 kts 99°
2026-04-28 02:12 42.57071 -71.71781 13334 ft 354 kts 99°
2026-04-28 02:13 42.56556 -71.68537 12770 ft 346 kts 99°
2026-04-28 02:13 42.56065 -71.65453 12317 ft 338 kts 99°
2026-04-28 02:13 42.55576 -71.62373 12037 ft 327 kts 99°
2026-04-28 02:13 42.55063 -71.59409 11905 ft 319 kts 101°
2026-04-28 02:14 42.54491 -71.56506 11800 ft 318 kts 102°
2026-04-28 02:14 42.53899 -71.53619 11588 ft 319 kts 102°
2026-04-28 02:14 42.53301 -71.50728 11073 ft 316 kts 102°
2026-04-28 02:14 42.52710 -71.47882 10615 ft 312 kts 102°
2026-04-28 02:15 42.51563 -71.42367 10187 ft 291 kts 102°
2026-04-28 02:15 42.51024 -71.39782 10073 ft 279 kts 102°
2026-04-28 02:15 42.50504 -71.37266 9969 ft 276 kts 101°
2026-04-28 02:16 42.49999 -71.34764 9898 ft 275 kts 101°
2026-04-28 02:16 42.49501 -71.32262 9829 ft 275 kts 101°
2026-04-28 02:16 42.49005 -71.29763 9745 ft 275 kts 101°
2026-04-28 02:16 42.48514 -71.27295 9696 ft 274 kts 101°
2026-04-28 02:17 42.48016 -71.24790 9437 ft 278 kts 101°
2026-04-28 02:17 42.47515 -71.22272 8994 ft 276 kts 101°
2026-04-28 02:17 42.47017 -71.19775 8573 ft 274 kts 101°
2026-04-28 02:17 42.46521 -71.17290 8185 ft 272 kts 101°
2026-04-28 02:18 42.46127 -71.14808 7812 ft 267 kts 95°
2026-04-28 02:18 42.45866 -71.12329 7436 ft 264 kts 94°
2026-04-28 02:18 42.45639 -71.09897 7188 ft 256 kts 93°
2026-04-28 02:18 42.45424 -71.07560 7081 ft 244 kts 93°
2026-04-28 02:19 42.45196 -71.05332 6987 ft 235 kts 98°
2026-04-28 02:19 42.44594 -71.03275 6933 ft 240 kts 120°
2026-04-28 02:19 42.43370 -71.01747 6880 ft 247 kts 143°
2026-04-28 02:19 42.41860 -71.00606 6837 ft 250 kts 148°
2026-04-28 02:20 42.40303 -70.99543 6790 ft 250 kts 148°
2026-04-28 02:20 42.38745 -70.98495 6724 ft 250 kts 149°
2026-04-28 02:20 42.37189 -70.97452 6661 ft 249 kts 149°
2026-04-28 02:20 42.35635 -70.96409 6586 ft 249 kts 149°
2026-04-28 02:21 42.34084 -70.95368 6529 ft 249 kts 149°
2026-04-28 02:21 42.32524 -70.94362 6461 ft 250 kts 154°
2026-04-28 02:21 42.30802 -70.93917 6293 ft 257 kts 180°
2026-04-28 02:21 42.29046 -70.94363 6039 ft 257 kts 194°
2026-04-28 02:22 42.27344 -70.95068 5991 ft 256 kts 195°
2026-04-28 02:22 42.25671 -70.95797 5977 ft 254 kts 196°
2026-04-28 02:22 42.24003 -70.96525 5970 ft 251 kts 196°
2026-04-28 02:22 42.22336 -70.97249 5975 ft 252 kts 195°
2026-04-28 02:23 42.20664 -70.97972 5983 ft 254 kts 195°
2026-04-28 02:23 42.18980 -70.98698 5963 ft 254 kts 195°
2026-04-28 02:23 42.17302 -70.99447 5963 ft 254 kts 197°
2026-04-28 02:23 42.15622 -71.00225 5921 ft 255 kts 197°
2026-04-28 02:24 42.13938 -71.01010 5728 ft 255 kts 197°
2026-04-28 02:24 42.12270 -71.01788 5513 ft 252 kts 197°
2026-04-28 02:24 42.10615 -71.02559 5320 ft 251 kts 197°
2026-04-28 02:24 42.08970 -71.03325 5123 ft 249 kts 197°
2026-04-28 02:25 42.07371 -71.04192 4913 ft 249 kts 211°
2026-04-28 02:25 42.06178 -71.05837 4679 ft 245 kts 243°
2026-04-28 02:25 42.05762 -71.08003 4474 ft 238 kts 275°
2026-04-28 02:25 42.06074 -71.10157 4299 ft 235 kts 290°
2026-04-28 02:26 42.06547 -71.12244 4122 ft 235 kts 290°
2026-04-28 02:26 42.07108 -71.14281 3975 ft 230 kts 305°
2026-04-28 02:26 42.08220 -71.15724 3853 ft 219 kts 337°
2026-04-28 02:26 42.09672 -71.16094 3724 ft 212 kts 10°
2026-04-28 02:27 42.11037 -71.15395 3674 ft 212 kts 30°
2026-04-28 02:27 42.12310 -71.14377 3609 ft 213 kts 32°
2026-04-28 02:27 42.13576 -71.13343 3532 ft 213 kts 32°
2026-04-28 02:27 42.14840 -71.12309 3459 ft 211 kts 32°
2026-04-28 02:28 42.16078 -71.11297 3404 ft 207 kts 32°
2026-04-28 02:28 42.17312 -71.10288 3323 ft 207 kts 32°
2026-04-28 02:28 42.18550 -71.09311 3247 ft 207 kts 27°
2026-04-28 02:28 42.19845 -71.08573 3189 ft 192 kts 21°
2026-04-28 02:29 42.21042 -71.07993 3057 ft 182 kts 21°
2026-04-28 02:29 42.22227 -71.07422 2894 ft 180 kts 21°
2026-04-28 02:29 42.23399 -71.06857 2617 ft 178 kts 21°
2026-04-28 02:29 42.24536 -71.06309 2332 ft 166 kts 21°
2026-04-28 02:30 42.25596 -71.05798 2097 ft 161 kts 21°
2026-04-28 02:30 42.26645 -71.05290 1893 ft 159 kts 21°
2026-04-28 02:30 42.27688 -71.04785 1675 ft 159 kts 21°
2026-04-28 02:30 42.28731 -71.04280 1462 ft 159 kts 21°
2026-04-28 02:31 42.29775 -71.03774 1241 ft 159 kts 21°
2026-04-28 02:31 42.30823 -71.03267 1027 ft 160 kts 21°
2026-04-28 02:31 42.31871 -71.02761 807 ft 160 kts 21°
2026-04-28 02:31 42.32926 -71.02260 604 ft 161 kts 21°
2026-04-28 02:32 42.33976 -71.01737 372 ft 161 kts 21°
2026-04-28 02:32 42.35029 -71.01230 123 ft 160 kts 22°
2026-04-28 02:32 42.36040 -71.00735 34 ft 135 kts 20°
2026-04-28 02:32 42.36663 -71.00432 33 ft 55 kts 19°
2026-04-28 02:33 42.36930 -71.00302 33 ft 40 kts 20°
2026-04-28 02:33 42.37142 -71.00202 34 ft 24 kts 14°
2026-04-28 02:33 42.37289 -71.00193 34 ft 18 kts 353°
2026-04-28 02:33 42.37404 -71.00216 33 ft 14 kts 349°
2026-04-28 02:34 42.37496 -71.00240 33 ft 12 kts 348°
2026-04-28 02:34 42.37574 -71.00264 33 ft 12 kts 346°
2026-04-28 02:34 42.37655 -71.00290 33 ft 12 kts 346°
2026-04-28 02:34 42.37739 -71.00321 33 ft 11 kts 333°
2026-04-28 02:35 42.37781 -71.00391 32 ft 9 kts 294°
2026-04-28 02:35 42.37803 -71.00464 33 ft 8 kts 291°
2026-04-28 02:35 42.37828 -71.00555 33 ft 13 kts 290°
2026-04-28 02:35 42.37828 -71.00638 33 ft 6 kts 235°
2026-04-28 02:36 42.37777 -71.00679 33 ft 11 kts 200°
2026-04-28 02:36 42.37703 -71.00715 33 ft 11 kts 200°
2026-04-28 02:36 42.37632 -71.00749 33 ft 10 kts 199°
2026-04-28 02:36 42.37566 -71.00779 33 ft 11 kts 199°
2026-04-28 02:37 42.37481 -71.00820 33 ft 13 kts 199°
2026-04-28 02:37 42.37396 -71.00861 33 ft 13 kts 201°
2026-04-28 02:37 42.37317 -71.00902 33 ft 12 kts 201°
2026-04-28 02:37 42.37246 -71.00943 32 ft 11 kts 204°
2026-04-28 02:38 42.37182 -71.00984 33 ft 10 kts 206°
2026-04-28 02:38 42.37124 -71.01022 33 ft 9 kts 205°
2026-04-28 02:38 42.37071 -71.01056 33 ft 8 kts 205°
2026-04-28 02:38 42.37021 -71.01087 33 ft 8 kts 205°
2026-04-28 02:39 42.36961 -71.01137 33 ft 11 kts 217°
2026-04-28 02:39 42.36905 -71.01201 31 ft 10 kts 221°
2026-04-28 02:39 42.36855 -71.01221 33 ft 6 kts 169°
2026-04-28 02:39 42.36816 -71.01183 33 ft 8 kts 139°
2026-04-28 02:40 42.36777 -71.01146 33 ft 6 kts 159°
2026-04-28 02:40 42.36739 -71.01145 33 ft 5 kts 187°
2026-04-28 02:40 42.36704 -71.01158 33 ft 5 kts 197°
2026-04-28 02:40 42.36668 -71.01172 33 ft 6 kts 197°
2026-04-28 02:41 42.36631 -71.01190 33 ft 6 kts 200°
2026-04-28 02:41 42.36588 -71.01211 33 ft 9 kts 200°
2026-04-28 02:41 42.36523 -71.01244 33 ft 10 kts 200°
2026-04-28 02:41 42.36459 -71.01275 33 ft 9 kts 200°
2026-04-28 02:42 42.36400 -71.01304 33 ft 9 kts 199°
2026-04-28 02:42 42.36346 -71.01330 33 ft 8 kts 199°
2026-04-28 02:42 42.36295 -71.01355 33 ft 8 kts 199°
2026-04-28 02:42 42.36247 -71.01378 33 ft 7 kts 199°
2026-04-28 02:43 42.36204 -71.01399 33 ft 6 kts 199°
2026-04-28 02:43 42.36149 -71.01425 33 ft 11 kts 199°
2026-04-28 02:43 42.36060 -71.01467 33 ft 16 kts 199°
2026-04-28 02:43 42.35958 -71.01516 33 ft 11 kts 199°
2026-04-28 02:44 42.35898 -71.01544 33 ft 9 kts 199°
2026-04-28 02:44 42.35843 -71.01570 33 ft 8 kts 200°
2026-04-28 02:44 42.35821 -71.01614 33 ft 6 kts 254°
2026-04-28 02:44 42.35830 -71.01684 33 ft 8 kts 283°
2026-04-28 02:45 42.35842 -71.01757 33 ft 7 kts 282°
2026-04-28 02:45 42.35853 -71.01825 33 ft 9 kts 283°
2026-04-28 02:45 42.35885 -71.01925 33 ft 14 kts 299°
2026-04-28 02:45 42.35924 -71.02012 32 ft 7 kts 301°
2026-04-28 02:46 42.35943 -71.02055 33 ft 2 kts 301°
2026-04-28 02:46 42.35946 -71.02062 33 ft 2 kts 299°
2026-04-28 02:46 42.35944 -71.02100 33 ft 6 kts 249°
2026-04-28 02:46 42.35910 -71.02138 32 ft 4 kts 211°
2026-04-28 02:47 42.35901 -71.02145 33 ft 0 kts 211°
2026-04-28 02:47 42.35900 -71.02146 33 ft 0 kts 211°